Location: Rometta
(44.2000°N, 10.0500°E)
Time: 21:53:15
(UTC+00:00)

CZ-2C R/B - Pass Details

Date: 20 January 2021
Orbit: 704 x 908 km, 98.1° (Epoch: 03 March)

Event Time Altitude Azimuth Distance (km) Brightness Sun altitude
Rises 18:06:22 0° 180° (S) 3,251 6.4 -20.0°
Reaches altitude 10° 18:08:41 10° 185° (S) 2,357 5.7 -20.4°
Maximum altitude 18:13:47 52° 261° (W) 1,024 4.0 -21.3°
Drops below altitude 10° 18:19:12 10° 338° (NNW) 2,504 5.8 -22.2°
Sets 18:21:44 0° 343° (NNW) 3,472 6.5 -22.7°
